Voltar ao catálogo

HULIANWANG DIGUI-162

AtivoComunicaçõesLEO
NORAD 68136·PAYLOAD·🇨🇳 China

Lançado Mar 12, 2026 de Wenchang Space Launch Site

Loading…

Próximas Passagens (próximas 24 horas)

TLE

AtualizadoSource: Space-Track

Época: Sep 14, 2026, 13:25 UTC

1 68136U 26047H   26257.55930664 -.00000105  00000-0  42091-4 0  9990
2 68136  50.0055  95.3864 0001261  70.5861 289.5147 13.29324510 24959

Acompanhe HULIANWANG DIGUI-162 em tempo real com AllMySat

Download on the App Store